User: anonymous   Login
Location: Invercargill
(46.4000°S, 168.3500°E)
Time: 04:23:39
(UTC+12:00)
Language:

Vanguard 1 Rocket - Orbit

View from above orbital plane
View from above orbital plane
View from above satellite
View from above satellite

Ground track
Ground track

The orbit data is extracted from the following two-line orbital elements,

1    16U 58002A   19233.25052752 -.00000059 +00000-0 -54637-4 0  9993
2    16 034.2631 304.3638 2026265 047.7642 327.8005 10.48745829427217
Epoch (UTC): 21 August 2019 06:00:45
Eccentricity: 0.2026265
inclination: 34.2631°
perigee height: 652 km
apogee height: 4224 km
right ascension of ascending node: 304.3638°
argument of perigee: 47.7642°
revolutions per day: 10.48745829
mean anomaly at epoch: 327.8005°
orbit number at epoch: 42721

The dashed part of the orbit path shows where the satellite is in the earth's shadow,  

DLR